Location: Campillo
(40.8621°N, 4.2488°W)
Time: 03:15:21
(UTC+00:00)

X-37B - Pass Details

Date: 04 August 2021
Orbit: 381 x 393 km, 45.0° (Epoch: 29 August)

Event Time Altitude Azimuth Distance (km) Brightness Sun altitude
Exits shadow 03:48:40 29° 270° (W) 730 1.5 -14.9°
Maximum altitude 03:50:02 62° 342° (NNW) 430 0.8 -14.7°
Drops below altitude 10° 03:53:10 10° 65° (ENE) 1,398 4.7 -14.3°
Sets 03:55:15 0° 69° (ENE) 2,253 6.0 -14.0°
